Simultaneous Nadir Overpasses (SNOs) Predictions

Prediction of SNOs between GOES-17 and METOP-C Satellite Orbit:

Table of predicted SNOs for the next 14.0 days since TLE Epoch: 11/23/2024
Index Date Time (GOES-17) GOES-17 Lat,Lon METOP-C Lat,Lon Distance(km) Time Diff (sec)
1 11/23/2024 16:16:52 0.01,-104.72 -0.79,-101.20 401.36 80
2 11/25/2024 04:35:53 -0.00,-104.67 -0.23,-105.80 128.11 80
3 11/26/2024 04:12:33 -0.00,-104.68 0.85,-100.80 441.04 80
4 11/27/2024 16:31:27 0.00,-104.74 0.13,-105.38 72.53 80
5 11/28/2024 16:13:27 -0.00,-104.74 -0.96,-100.38 496.97 80
6 11/30/2024 04:32:29 0.01,-104.69 -0.03,-104.98 32.25 80
7 12/02/2024 16:30:41 -0.01,-104.74 -0.04,-104.55 22.29 80
8 12/05/2024 04:26:22 -0.00,-104.70 0.12,-104.14 62.91 80
9 12/06/2024 16:45:14 0.01,-104.74 0.89,-108.71 452.42 80
